Regional Weather Roundup
Issued by NWS

Home | Current Version | Previous Version | Graphics & Text | Print | Product List | Glossary On
Versions: 1 2 3 4 5 6 7 8 9 10 11 12 13 14 15 16 17 18 19 20 21 22 23 24 25 26 27 28 29 30 31 32 33 34 35 36 37 38 39 40 41 42 43 44 45 46 47 48 49 50
000
ASUS44 KMEG 272010
RWRTN
TENNESSEE HOURLY STATE WEATHER ROUNDUP
NATIONAL WEATHER SERVICE MEMPHIS TN
300 PM CDT TUE JUN 27 2017

TNZ002-004-019-021-049-052-054-088>092-272100-
WEST TENNESSEE

CITY           SKY/WX    TMP DP  RH WIND       PRES   REMARKS
MEMPHIS INTL   MOSUNNY   85  61  44 CALM      30.07F
NWS MEMPHIS      N/A     84 N/A N/A MISG        N/A
JACKSON        SUNNY     82  62  50 CALM      30.09F
SOMERVILLE     MOSUNNY   82  64  54 VRB5      30.08S
COVINGTON      SUNNY     81  64  57 SE6       30.08F
UNION CITY     MOSUNNY   79  57  47 VRB6      30.08F
BOLIVAR        SUNNY     82  63  51 CALM      30.08F
HUNTINGDON     MOSUNNY   81  61  50 VRB6      30.09S
LEXINGTON      SUNNY     79  61  53 N5        30.09F
SELMER         MOSUNNY   81  63  54 CALM      30.09S
SAVANNAH       SUNNY     81  61  50 VRB6      30.08F
$$

TNZ008-025-027-028-033-062-065-066-272100-
NORTH MIDDLE TENNESSEE

CITY           SKY/WX    TMP DP  RH WIND       PRES   REMARKS
NASHVILLE      PTSUNNY   83  55  38 E6        30.10F
PORTLAND       MOSUNNY   79  55  44 N9        30.10F
CLARKSVILLE    SUNNY     80  52  37 N6        30.10F
SMYRNA         MOSUNNY   82  56  40 E3        30.10F
COOKEVILLE     MOSUNNY   77  54  44 NE6       30.11F
GALLATIN       MOSUNNY   79  54  41 N8        30.12F
CROSSVILLE     SUNNY     75  51  43 N8        30.15F
$$

TNZ061-075-076-078-094-096-097-272100-
SOUTH MIDDLE TENNESSEE

CITY           SKY/WX    TMP DP  RH WIND       PRES   REMARKS
FAYETTEVILLE   SUNNY     77  57  50 VRB6G12   30.10S
TULLAHOMA      SUNNY     75  52  43 N5        30.12F
WINCHESTER     SUNNY     79  54  41 CALM      30.11F
MCMINNVILLE    SUNNY     79  57  47 VRB6      30.11F
COLUMBIA       SUNNY     79  55  44 N6        30.08S
SHELBYVILLE    SUNNY     79  57  47 VRB3      30.10F
$$

TNZ017-018-042-046-047-272100-
NORTHEAST TENNESSEE

CITY           SKY/WX    TMP DP  RH WIND       PRES   REMARKS
TRI CITIES     MOSUNNY   76  50  40 VRB6      30.12F
ELIZABETHTON   MOSUNNY   75  52  43 W6        30.13F
$$

TNZ012-013-036-069-073-074-272100-
CENTRAL EAST TENNESSEE

CITY           SKY/WX    TMP DP  RH WIND       PRES   REMARKS
KNOXVILLE      MOSUNNY   78  51  38 E8        30.11S
OAK RIDGE      MOSUNNY   79  49  34 W3        30.12F
DOWNTOWN KNOXV SUNNY     79  52  38 VRB5      30.10F
GATLINBURG     MOSUNNY   79  50  36 NE8       30.11S
MORRISTOWN     MOSUNNY   77  50  38 NE7       30.12S
JACKSBORO      PTSUNNY   79  48  34 VRB3      30.15F
$$

TNZ083-085-099-272100-
SOUTHEAST TENNESSEE

CITY           SKY/WX    TMP DP  RH WIND       PRES   REMARKS
CHATTANOOGA    MOSUNNY   81  50  33 N8        30.10F
DAYTON         PTCLDY    79  57  47 NE3       30.09F
$$

SKY/WX REPORTED AS FAIR MEANS FEW OR NO CLOUDS BELOW
12 THOUSAND FEET.




USA.gov is the U.S. government's official web portal to all federal, state and local government web resources and services.